Location: Hohe Wand Kleine Kanzel
(47.8330°N, 16.0170°E)
Time: 14:44:18
(UTC+02:00)

Vanguard 3 - Pass Details

Date: 02 August 2021
Orbit: 509 x 3260 km, 33.4° (Epoch: 27 September)

Event Time Altitude Azimuth Distance (km) Brightness Sun altitude
Rises 00:29:44 0° 276° (W) 7,070 12.1 -24.0°
Reaches altitude 10° 00:35:26 10° 267° (W) 6,175 11.6 -24.1°
Maximum altitude 00:50:12 28° 219° (SW) 4,659 10.5 -24.3°
Enters shadow 00:53:32 26° 204° (SSW) 4,616 10.4 -24.4°
